{"data":{"norad_id":66280,"epoch":"2026-05-25T03:02:25.954656Z","epoch_age_seconds":67340,"freshness":"FRESH","line1":"1 66280U 25247R   26145.12668929  .00014843  00000+0  44948-3 0  9994","line2":"2 66280  53.1596 195.1883 0001594  82.6489 277.4694 15.34406119 32754","mean_motion":15.34406119,"eccentricity":0.0001594,"inclination_deg":53.1596,"raan_deg":195.1883,"arg_perigee_deg":82.6489,"mean_anomaly_deg":277.4694,"bstar":0.00044948,"rev_number":3275,"period_min":93.847383829418,"perigee_km":461.59462627473,"apogee_km":463.77548034532,"semimajor_km":6840.82205331,"source":"CELESTRAK","updated_at":"2026-05-25T13:38:21.163199Z"}}